Overview Statistics Trail Chart Weather Telemetry Raw packets
 

This is the latest recevied weather packets stored in our database for station/object KD4EG. If no packets are shown the sender has not sent any weather packets the latest 10 day(s).

<< 61 62 63 64 65 66 67 >>
Time Temp. Humidity Pressure Rain* Wind** Luminosity Snow
1788222125 27.78° C 72% 1021.5 hPa 0 mm - 0 W/m² -
1788221808 27.78° C 72% 1021.4 hPa 0 mm - 0 W/m² -
1788221503 28.33° C 71% 1021.7 hPa 0 mm - 0 W/m² -
1788221198 28.89° C 69% 1021.4 hPa 0 mm - 0 W/m² -
1788220893 29.44° C 67% 1021.6 hPa 0 mm - 0 W/m² -
1788220587 29.44° C 67% 1021.2 hPa 0 mm - 0 W/m² -
1788220283 29.44° C 66% 1021.4 hPa 0 mm - 1 W/m² -
1788219981 30° C 64% 1021.5 hPa 0 mm - 3 W/m² -
1788219677 30° C 64% 1021.3 hPa 0 mm - 6 W/m² -
1788219373 30° C 64% 1021 hPa 0 mm - 10 W/m² -
1788219068 30° C 64% 1021.4 hPa 0 mm - 16 W/m² -
1788218763 30° C 64% 1021.4 hPa 0 mm - 15 W/m² -
1788218459 30° C 65% 1021.4 hPa 0 mm - 16 W/m² -
1788218155 30° C 65% 1021.6 hPa 0 mm - 20 W/m² -
1788217850 30° C 64% 1021.5 hPa 0 mm - 25 W/m² -
1788217546 30° C 64% 1021.4 hPa 0 mm - 32 W/m² -
1788217241 30.56° C 63% 1021.1 hPa 0 mm - 37 W/m² -
1788216936 30° C 63% 1021.2 hPa 0 mm - 44 W/m² -
1788216636 30.56° C 63% 1021.2 hPa 0 mm - 47 W/m² -
1788216331 30.56° C 63% 1021.2 hPa 0 mm - 57 W/m² -
1788216026 30.56° C 62% 1021.3 hPa 0 mm - 71 W/m² -
1788215721 30.56° C 63% 1021.2 hPa 0 mm - 71 W/m² -
1788215418 31.11° C 61% 1021.3 hPa 0 mm - 67 W/m² -
1788215114 31.11° C 61% 1021.4 hPa 0 mm - 78 W/m² -
1788214813 31.11° C 60% 1021.4 hPa 0 mm - 117 W/m² -

* Rain latest hour (hover to see other rain measurements)
** Current wind speed in m/s (hover to see current wind gust speed)